Harlan, IA

7:56 PM CST on December 02, 2016 (GMT -0600)
Harlan Municipal

Weather History for KHNR - April, 2013

Change the Weather History Date:

Sunday, April 7, 2013

  Actual Average Record
Temperature  
Mean Temperature 53 °F -  
Max Temperature 73 °F 63 °F 83 °F (1988)
Min Temperature 33 °F 35 °F 15 °F (1982)
Degree Days  
Heating Degree Days 12    
Growing Degree Days 3 (Base 50)    
Moisture  
Dew Point 36 °F    
Average Humidity 61    
Maximum Humidity 100    
Minimum Humidity 19    
Precipitation  
Precipitation 0.00 in - - ()
Sea Level Pressure  
Sea Level Pressure 29.82 in    
Wind  
Wind Speed 5 mph (ESE)    
Max Wind Speed 20 mph    
Max Gust Speed 37 mph    
Visibility 9 miles    
Events Rain    
Averages and records for this station are not official NWS values.
T = Trace of Precipitation, MM = Missing Value Source: NWS Daily Summary

Daily Weather History Graph

Daily Weather History Graph

Search for Another Location

Airport or City:

Trip Planner

Search our weather history database for the weather conditions in past years. The results will help you decide how hot, cold, wet, or windy it might be!

Date:

Astronomy

Apr. 07, 2013 Rise Set
Actual Time 6:53 AM CDT 7:53 PM CDT
Civil Twilight 6:25 AM CDT 8:21 PM CDT
Nautical Twilight 5:51 AM CDT 8:55 PM CDT
Astronomical Twilight 5:16 AM CDT 9:30 PM CDT
Moon 5:13 AM CDT (4/7) 5:25 PM CDT (4/7)
Length of Visible Light 13h 56m
Length of Day
12h 59m
Waning Crescent, 8% of the Moon is Illuminated
Apr 7
Waning Crescent
Apr 10
New
Apr 18
First Quarter
Apr 25
Full
May 2
Last Quarter

Hourly Weather History & Observations

Time (CDT) Temp. Windchill Dew Point Humidity Pressure Visibility Wind Dir Wind Speed Gust Speed Precip Events Conditions
12:15 AM 41.0 °F 38.0 °F 32.0 °F 70% 29.83 in 10.0 mi NNE 4.6 mph - N/A   Clear
12:35 AM 42.8 °F - 33.8 °F 70% 29.84 in 10.0 mi Calm Calm - N/A   Clear
12:55 AM 39.2 °F - 32.0 °F 75% 29.85 in 10.0 mi Calm Calm - N/A   Clear
1:15 AM 39.2 °F - 33.8 °F 81% 29.86 in 10.0 mi Calm Calm - N/A   Clear
1:35 AM 39.2 °F - 33.8 °F 81% 29.87 in 10.0 mi Calm Calm - N/A   Clear
1:55 AM 39.2 °F 35.9 °F 33.8 °F 81% 29.87 in 10.0 mi North 4.6 mph - N/A   Clear
2:15 AM 37.4 °F 33.8 °F 32.0 °F 81% 29.87 in 10.0 mi North 4.6 mph - N/A   Clear
2:35 AM 39.2 °F - 33.8 °F 81% 29.87 in 10.0 mi Calm Calm - N/A   Clear
2:55 AM 35.6 °F - 32.0 °F 87% 29.87 in 10.0 mi Calm Calm - N/A   Clear
3:15 AM 37.4 °F - 33.8 °F 87% 29.87 in 10.0 mi Calm Calm - N/A   Clear
3:35 AM 35.6 °F - 32.0 °F 87% 29.87 in 10.0 mi Calm Calm - N/A   Clear
3:55 AM 33.8 °F 30.8 °F 32.0 °F 93% 29.87 in 10.0 mi NNE 3.5 mph - N/A   Clear
4:15 AM 33.8 °F 27.7 °F 30.2 °F 87% 29.87 in 10.0 mi North 6.9 mph - N/A   Clear
4:35 AM 33.8 °F 30.8 °F 33.8 °F 100% 29.88 in 10.0 mi NNE 3.5 mph - N/A   Clear
4:55 AM 33.8 °F 29.6 °F 33.8 °F 100% 29.88 in 7.0 mi North 4.6 mph - N/A   Clear
5:15 AM 35.6 °F 29.9 °F 33.8 °F 93% 29.88 in 7.0 mi NNE 6.9 mph - N/A   Scattered Clouds
5:35 AM 33.8 °F 29.6 °F 33.8 °F 100% 29.87 in 7.0 mi North 4.6 mph - N/A   Scattered Clouds
5:55 AM 33.8 °F - 32.0 °F 93% 29.88 in 5.0 mi Calm Calm - N/A   Clear
6:15 AM 33.8 °F 30.8 °F 33.8 °F 100% 29.88 in 5.0 mi NNE 3.5 mph - N/A   Clear
6:35 AM 33.8 °F 29.6 °F 33.8 °F 100% 29.88 in 5.0 mi North 4.6 mph - N/A   Clear
6:55 AM 33.8 °F 27.7 °F 32.0 °F 93% 29.89 in 5.0 mi North 6.9 mph - N/A   Clear
7:15 AM 33.8 °F 28.6 °F 33.8 °F 100% 29.90 in 4.0 mi North 5.8 mph - N/A   Clear
7:35 AM 33.8 °F - 33.8 °F 100% 29.92 in 4.0 mi Calm Calm - N/A   Mostly Cloudy
7:55 AM 35.6 °F - 33.8 °F 93% 29.92 in 5.0 mi Calm Calm - N/A   Mostly Cloudy
8:15 AM 37.4 °F 33.8 °F 33.8 °F 87% 29.92 in 7.0 mi ENE 4.6 mph - N/A   Scattered Clouds
8:35 AM 39.2 °F 34.2 °F 35.6 °F 87% 29.92 in 7.0 mi ENE 6.9 mph - N/A   Scattered Clouds
8:55 AM 41.0 °F 38.0 °F 37.4 °F 87% 29.93 in 7.0 mi East 4.6 mph - N/A   Scattered Clouds
9:15 AM 42.8 °F 39.3 °F 37.4 °F 81% 29.92 in 7.0 mi ENE 5.8 mph - N/A   Scattered Clouds
9:35 AM 42.8 °F 39.3 °F 37.4 °F 81% 29.92 in 10.0 mi ESE 5.8 mph - N/A   Clear
9:55 AM 46.4 °F 42.9 °F 37.4 °F 71% 29.92 in 10.0 mi East 6.9 mph - N/A   Clear
10:15 AM 46.4 °F 42.4 °F 35.6 °F 66% 29.92 in 10.0 mi East 8.1 mph - N/A   Clear
10:35 AM 50.0 °F - 35.6 °F 58% 29.90 in 10.0 mi ESE 10.4 mph - N/A   Mostly Cloudy
10:55 AM 51.8 °F - 35.6 °F 54% 29.92 in 10.0 mi ESE 9.2 mph - N/A   Scattered Clouds
11:15 AM 53.6 °F - 37.4 °F 54% 29.91 in 10.0 mi SSE 9.2 mph - N/A   Scattered Clouds
11:35 AM 55.4 °F - 37.4 °F 51% 29.91 in 10.0 mi ESE 10.4 mph - N/A   Scattered Clouds
11:55 AM 55.4 °F - 37.4 °F 51% 29.89 in 10.0 mi ESE 13.8 mph - N/A   Clear
12:15 PM 59.0 °F - 37.4 °F 45% 29.87 in 10.0 mi East 13.8 mph - N/A   Clear
12:35 PM 60.8 °F - 39.2 °F 45% 29.87 in 10.0 mi ESE 11.5 mph - N/A   Scattered Clouds
12:55 PM 59.0 °F - 39.2 °F 48% 29.88 in 10.0 mi SSE 11.5 mph - N/A Rain Light Rain
1:15 PM 60.8 °F - 39.2 °F 45% 29.86 in 10.0 mi SE 10.4 mph - N/A   Mostly Cloudy
1:35 PM 62.6 °F - 37.4 °F 39% 29.85 in 10.0 mi SE 13.8 mph 18.4 mph N/A   Scattered Clouds
1:55 PM 62.6 °F - 37.4 °F 39% 29.84 in 10.0 mi SE 10.4 mph 17.3 mph N/A   Scattered Clouds
2:15 PM 66.2 °F - 35.6 °F 32% 29.82 in 10.0 mi SE 13.8 mph 21.9 mph N/A   Scattered Clouds
2:35 PM 66.2 °F - 35.6 °F 32% 29.81 in 10.0 mi SE 16.1 mph 24.2 mph N/A   Scattered Clouds
2:55 PM 69.8 °F - 35.6 °F 28% 29.80 in 10.0 mi SE 17.3 mph 20.7 mph N/A   Scattered Clouds
3:15 PM 69.8 °F - 33.8 °F 27% 29.79 in 10.0 mi SE 13.8 mph 21.9 mph N/A   Scattered Clouds
3:35 PM 71.6 °F - 33.8 °F 25% 29.78 in 10.0 mi ESE 13.8 mph 19.6 mph N/A   Clear
3:55 PM 71.6 °F - 30.2 °F 22% 29.76 in 10.0 mi SE 13.8 mph 23.0 mph N/A   Scattered Clouds
4:15 PM 73.4 °F - 28.4 °F 19% 29.75 in 10.0 mi SSE 18.4 mph 23.0 mph N/A   Scattered Clouds
4:35 PM 73.4 °F - 28.4 °F 19% 29.74 in 10.0 mi South 16.1 mph 20.7 mph N/A   Scattered Clouds
4:55 PM 71.6 °F - 30.2 °F 22% 29.73 in 10.0 mi SSE 11.5 mph - N/A   Clear
5:15 PM 71.6 °F - 28.4 °F 20% 29.73 in 10.0 mi South 10.4 mph 20.7 mph N/A   Mostly Cloudy
5:35 PM 69.8 °F - 35.6 °F 28% 29.74 in 7.0 mi SW 19.6 mph 36.8 mph N/A Rain Light Rain
5:55 PM 64.4 °F - 41.0 °F 42% 29.74 in 10.0 mi South 5.8 mph 20.7 mph N/A Rain Light Rain
6:15 PM 66.2 °F - 37.4 °F 35% 29.74 in 10.0 mi SSW 10.4 mph - N/A Rain Light Rain
6:35 PM 64.4 °F - 41.0 °F 42% 29.75 in 10.0 mi South 12.7 mph 25.3 mph N/A Rain Light Rain
6:55 PM 62.6 °F - 41.0 °F 45% 29.73 in 10.0 mi ESE 4.6 mph - N/A   Mostly Cloudy
7:15 PM 62.6 °F - 41.0 °F 45% 29.72 in 10.0 mi ESE 5.8 mph - N/A   Scattered Clouds
7:35 PM 62.6 °F - 39.2 °F 42% 29.72 in 10.0 mi Calm Calm - N/A   Scattered Clouds
7:55 PM 60.8 °F - 42.8 °F 52% 29.70 in 10.0 mi Calm Calm - N/A Rain Light Rain
8:15 PM 64.4 °F - 33.8 °F 32% 29.70 in 10.0 mi ESE 6.9 mph - N/A   Mostly Cloudy
8:35 PM 60.8 °F - 41.0 °F 48% 29.69 in 10.0 mi ESE 6.9 mph - N/A   Mostly Cloudy
8:55 PM 62.6 °F - 39.2 °F 42% 29.70 in 10.0 mi SE 8.1 mph - N/A   Scattered Clouds
9:15 PM 59.0 °F - 39.2 °F 48% 29.70 in 10.0 mi Calm Calm - N/A   Mostly Cloudy
9:35 PM 55.4 °F - 42.8 °F 63% 29.70 in 10.0 mi Calm Calm - N/A   Mostly Cloudy
9:55 PM 57.2 °F - 39.2 °F 51% 29.71 in 10.0 mi Calm Calm - N/A   Overcast
10:15 PM 57.2 °F - 41.0 °F 55% 29.69 in 10.0 mi Calm Calm - N/A   Mostly Cloudy
10:35 PM 57.2 °F - 41.0 °F 55% 29.69 in 10.0 mi SSE 3.5 mph - N/A   Mostly Cloudy
10:55 PM 53.6 °F - 42.8 °F 67% 29.70 in 10.0 mi Calm Calm - N/A   Scattered Clouds
11:15 PM 57.2 °F - 39.2 °F 51% 29.71 in 10.0 mi South 6.9 mph - N/A   Overcast
11:35 PM 60.8 °F - 42.8 °F 52% 29.71 in 10.0 mi SSW 17.3 mph 21.9 mph N/A   Overcast
11:55 PM 59.0 °F - 44.6 °F 59% 29.71 in 10.0 mi SSW 17.3 mph - N/A Rain Light Rain